Regional Weather Roundup
Issued by NWS Cleveland, OH

Home | Current Version | Previous Version | Graphics & Text | Print | Product List | Glossary Off
Versions: 1 2 3 4 5 6 7 8 9 10 11 12 13 14 15 16 17 18 19 20 21 22 23 24 25 26 27 28 29 30 31 32 33 34 35 36 37 38 39 40 41 42 43 44 45 46 47 48 49 50

000
ASUS41 KCLE 250410
RWRCLE
OHIO REGIONAL WEATHER ROUNDUP
NATIONAL WEATHER SERVICE WILMINGTON, OH
1200 AM EDT SAT APR 25 2015

NOTE: "FAIR" INDICATES FEW OR NO CLOUDS BELOW 12,000 FEET WITH NO
SIGNIFICANT WEATHER AND/OR OBSTRUCTIONS TO VISIBILITY.

OHZ001>008-015>018-024>027-034-035-043-044-250500-
   NORTHWEST OHIO

CITY           SKY/WX    TMP DP  RH WIND       PRES   REMARKS
DEFIANCE       CLOUDY    51  33  50 NE8       29.96S
FINDLAY        CLOUDY    51  33  50 E9        29.94S
TOLEDO EXPRESS LGT RAIN  48  35  60 NW8       29.99R
TOLEDO EXEC    CLOUDY    46  32  58 CALM      30.00R
LIMA           CLOUDY    50  33  52 SE6       29.94F
$$

OHZ009>014-019>023-028>033-038-089-250500-
   NORTHEAST OHIO

CITY           SKY/WX    TMP DP  RH WIND       PRES   REMARKS
CLE-HOPKINS    PTCLDY    43  23  45 E8        30.01F
CLE-LAKEFRONT  CLEAR     44  20  38 E6        30.00S
CUY CO. ARPT   NOT AVBL
LORAIN-ELYRIA  MOCLDY    43  26  51 SE6       29.99S
ASHTABULA      CLEAR     32  23  69 CALM      30.01F
AKRON-CANTON   MOCLDY    42  22  44 E9        29.98F
WOOSTER        PTCLDY    40  30  67 E3        29.98S
MANSFIELD      CLOUDY    47  28  47 SE6       29.96F
YOUNGSTOWN     MOCLDY    36  20  52 E5        29.99F
$$

OHZ042-051>053-060>062-070>072-077>081-250500-
  SOUTHWEST OHIO

CITY           SKY/WX    TMP DP  RH WIND       PRES   REMARKS
CINC-COVINGTON CLOUDY    54  32  43 SE7       29.90F
CINC-LUNKEN    CLOUDY    52  41  66 CALM      29.92F
HAMILTON       CLOUDY    56  35  45 CALM      29.92F
DAYTON         CLOUDY    54  31  41 E8        29.92F
WRIGHT-PAT AFB CLOUDY    53  33  47 E3        29.93S
DAYTON GENERAL CLOUDY    51  35  54 E7        29.91F
WILMINGTON     CLOUDY    50  35  56 E5        29.93F
$$

OHZ036-037-039>041-045>050-054>059-063>069-073>076-082>088-250500-
  CENTRAL AND SOUTHEAST OHIO

CITY           SKY/WX    TMP DP  RH WIND       PRES   REMARKS
COLUMBUS       CLOUDY    51  33  50 CALM      29.95S
OSU AIRPORT    CLOUDY    49  34  56 CALM      29.95S
BOLTON FIELD   CLOUDY    49  35  58 CALM      29.96S
RICKENBACK AFB CLOUDY    49  37  65 CALM      29.95S
NEWARK         CLOUDY    45  38  76 CALM      29.96S
MARION         CLOUDY    47  33  58 SE5       29.95F
LANCASTER      CLOUDY    47  38  71 CALM      29.96S
ZANESVILLE     MOCLDY    43  30  60 CALM      29.96S
NEW PHILLY     MOCLDY    44  30  57 CALM      29.99R
$$


USA.gov is the U.S. government's official web portal to all federal, state and local government web resources and services.